owner,sensor,date,latitude,longitude,vertical_datum,sea_water_temperature,qcFlag 
COMPS,ioos:station:USF.COMPS:C10:1,2009-04-01T00:00:00Z,27.1690,-82.9260,-1.0,20.66,2 
COMPS,ioos:station:USF.COMPS:C10:1,2009-04-01T00:20:00Z,27.1690,-82.9260,-1.0,20.55,2 
COMPS,ioos:station:USF.COMPS:C10:1,2009-04-01T00:40:00Z,27.1690,-82.9260,-1.0,20.58,2 
COMPS,ioos:station:USF.COMPS:C10:1,2009-04-01T01:00:00Z,27.1690,-82.9260,-1.0,20.6,2 
COMPS,ioos:station:USF.COMPS:C10:1,2009-04-01T01:20:00Z,27.1690,-82.9260,-1.0,20.62,2 
COMPS,ioos:station:USF.COMPS:C10:1,2009-04-01T01:40:00Z,27.1690,-82.9260,-1.0,20.61,2 
COMPS,ioos:station:USF.COMPS:C10:1,2009-04-01T02:00:00Z,27.1690,-82.9260,-1.0,20.62,2 
COMPS,ioos:station:USF.COMPS:C10:1,2009-04-01T02:20:00Z,27.1690,-82.9260,-1.0,20.6,2 
COMPS,ioos:station:USF.COMPS:C10:1,2009-04-01T02:40:00Z,27.1690,-82.9260,-1.0,20.6,2 
COMPS,ioos:station:USF.COMPS:C10:1,2009-04-01T03:00:00Z,27.1690,-82.9260,-1.0,20.63,2 
COMPS,ioos:station:USF.COMPS:C10:1,2009-04-01T03:20:00Z,27.1690,-82.9260,-1.0,20.62,2 
COMPS,ioos:station:USF.COMPS:C10:1,2009-04-01T03:40:00Z,27.1690,-82.9260,-1.0,20.6,2 
COMPS,ioos:station:USF.COMPS:C10:1,2009-04-01T04:00:00Z,27.1690,-82.9260,-1.0,20.64,2 
COMPS,ioos:station:USF.COMPS:C10:1,2009-04-01T04:20:00Z,27.1690,-82.9260,-1.0,20.63,2 
COMPS,ioos:station:USF.COMPS:C10:1,2009-04-01T04:40:00Z,27.1690,-82.9260,-1.0,20.62,2 
COMPS,ioos:station:USF.COMPS:C10:1,2009-04-01T05:00:00Z,27.1690,-82.9260,-1.0,20.62,2 
COMPS,ioos:station:USF.COMPS:C10:1,2009-04-01T05:20:00Z,27.1690,-82.9260,-1.0,20.61,2 
COMPS,ioos:station:USF.COMPS:C10:1,2009-04-01T05:40:00Z,27.1690,-82.9260,-1.0,20.6,2 
COMPS,ioos:station:USF.COMPS:C10:1,2009-04-01T06:00:00Z,27.1690,-82.9260,-1.0,20.59,2 
COMPS,ioos:station:USF.COMPS:C10:1,2009-04-01T06:20:00Z,27.1690,-82.9260,-1.0,20.59,2 
COMPS,ioos:station:USF.COMPS:C10:1,2009-04-01T06:40:00Z,27.1690,-82.9260,-1.0,20.58,2 
COMPS,ioos:station:USF.COMPS:C10:1,2009-04-01T07:00:00Z,27.1690,-82.9260,-1.0,20.62,2 
COMPS,ioos:station:USF.COMPS:C10:1,2009-04-01T07:20:00Z,27.1690,-82.9260,-1.0,20.61,2 
COMPS,ioos:station:USF.COMPS:C10:1,2009-04-01T07:40:00Z,27.1690,-82.9260,-1.0,20.62,2 
COMPS,ioos:station:USF.COMPS:C10:1,2009-04-01T08:00:00Z,27.1690,-82.9260,-1.0,20.62,2 
COMPS,ioos:station:USF.COMPS:C10:1,2009-04-01T08:20:00Z,27.1690,-82.9260,-1.0,20.62,2 
COMPS,ioos:station:USF.COMPS:C10:1,2009-04-01T08:40:00Z,27.1690,-82.9260,-1.0,20.61,2 
COMPS,ioos:station:USF.COMPS:C10:1,2009-04-01T09:00:00Z,27.1690,-82.9260,-1.0,20.61,2 
COMPS,ioos:station:USF.COMPS:C10:1,2009-04-01T09:20:00Z,27.1690,-82.9260,-1.0,20.6,2 
COMPS,ioos:station:USF.COMPS:C10:1,2009-04-01T09:40:00Z,27.1690,-82.9260,-1.0,20.61,2 
COMPS,ioos:station:USF.COMPS:C10:1,2009-04-01T10:00:00Z,27.1690,-82.9260,-1.0,20.61,2 
COMPS,ioos:station:USF.COMPS:C10:1,2009-04-01T10:20:00Z,27.1690,-82.9260,-1.0,20.62,2 
COMPS,ioos:station:USF.COMPS:C10:1,2009-04-01T10:40:00Z,27.1690,-82.9260,-1.0,20.61,2 
COMPS,ioos:station:USF.COMPS:C10:1,2009-04-01T11:00:00Z,27.1690,-82.9260,-1.0,20.62,2 
COMPS,ioos:station:USF.COMPS:C10:1,2009-04-01T11:20:00Z,27.1690,-82.9260,-1.0,20.6,2 
COMPS,ioos:station:USF.COMPS:C10:1,2009-04-01T11:40:00Z,27.1690,-82.9260,-1.0,20.61,2 
COMPS,ioos:station:USF.COMPS:C10:1,2009-04-01T12:00:00Z,27.1690,-82.9260,-1.0,20.6,2 
COMPS,ioos:station:USF.COMPS:C10:1,2009-04-01T12:20:00Z,27.1690,-82.9260,-1.0,20.6,2 
COMPS,ioos:station:USF.COMPS:C10:1,2009-04-01T12:40:00Z,27.1690,-82.9260,-1.0,20.59,2 
COMPS,ioos:station:USF.COMPS:C10:1,2009-04-01T13:00:00Z,27.1690,-82.9260,-1.0,20.6,2 
COMPS,ioos:station:USF.COMPS:C10:1,2009-04-01T13:20:00Z,27.1690,-82.9260,-1.0,20.62,2 
COMPS,ioos:station:USF.COMPS:C10:1,2009-04-01T13:40:00Z,27.1690,-82.9260,-1.0,20.64,2 
COMPS,ioos:station:USF.COMPS:C10:1,2009-04-01T14:00:00Z,27.1690,-82.9260,-1.0,20.64,2 
COMPS,ioos:station:USF.COMPS:C10:1,2009-04-01T14:20:00Z,27.1690,-82.9260,-1.0,20.65,2 
COMPS,ioos:station:USF.COMPS:C10:1,2009-04-01T14:40:00Z,27.1690,-82.9260,-1.0,20.67,2 
COMPS,ioos:station:USF.COMPS:C10:1,2009-04-01T15:00:00Z,27.1690,-82.9260,-1.0,20.67,2 
COMPS,ioos:station:USF.COMPS:C10:1,2009-04-01T15:20:00Z,27.1690,-82.9260,-1.0,20.7,2 
COMPS,ioos:station:USF.COMPS:C10:1,2009-04-01T15:40:00Z,27.1690,-82.9260,-1.0,20.72,2 
COMPS,ioos:station:USF.COMPS:C10:1,2009-04-01T16:00:00Z,27.1690,-82.9260,-1.0,20.76,2 
COMPS,ioos:station:USF.COMPS:C10:1,2009-04-01T16:20:00Z,27.1690,-82.9260,-1.0,20.77,2 
COMPS,ioos:station:USF.COMPS:C10:1,2009-04-01T16:40:00Z,27.1690,-82.9260,-1.0,20.82,2 
COMPS,ioos:station:USF.COMPS:C10:1,2009-04-01T17:00:00Z,27.1690,-82.9260,-1.0,20.82,2 
COMPS,ioos:station:USF.COMPS:C10:1,2009-04-01T17:20:00Z,27.1690,-82.9260,-1.0,20.82,2 
COMPS,ioos:station:USF.COMPS:C10:1,2009-04-01T17:40:00Z,27.1690,-82.9260,-1.0,20.83,2 
COMPS,ioos:station:USF.COMPS:C10:1,2009-04-01T18:00:00Z,27.1690,-82.9260,-1.0,20.84,2 
COMPS,ioos:station:USF.COMPS:C10:1,2009-04-01T18:20:00Z,27.1690,-82.9260,-1.0,20.87,2 
COMPS,ioos:station:USF.COMPS:C10:1,2009-04-01T18:40:00Z,27.1690,-82.9260,-1.0,20.95,2 
COMPS,ioos:station:USF.COMPS:C10:1,2009-04-01T19:00:00Z,27.1690,-82.9260,-1.0,20.97,2 
COMPS,ioos:station:USF.COMPS:C10:1,2009-04-01T19:20:00Z,27.1690,-82.9260,-1.0,21.0,2 
COMPS,ioos:station:USF.COMPS:C10:1,2009-04-01T19:40:00Z,27.1690,-82.9260,-1.0,20.99,2 
COMPS,ioos:station:USF.COMPS:C10:1,2009-04-01T20:00:00Z,27.1690,-82.9260,-1.0,20.98,2 
COMPS,ioos:station:USF.COMPS:C10:1,2009-04-01T20:20:00Z,27.1690,-82.9260,-1.0,20.92,2 
COMPS,ioos:station:USF.COMPS:C10:1,2009-04-01T20:40:00Z,27.1690,-82.9260,-1.0,21.06,2 
COMPS,ioos:station:USF.COMPS:C10:1,2009-04-01T21:00:00Z,27.1690,-82.9260,-1.0,21.05,2 
COMPS,ioos:station:USF.COMPS:C10:1,2009-04-01T21:20:00Z,27.1690,-82.9260,-1.0,21.15,2 
COMPS,ioos:station:USF.COMPS:C10:1,2009-04-01T21:40:00Z,27.1690,-82.9260,-1.0,21.2,2 
COMPS,ioos:station:USF.COMPS:C10:1,2009-04-01T22:00:00Z,27.1690,-82.9260,-1.0,21.11,2 
COMPS,ioos:station:USF.COMPS:C10:1,2009-04-01T22:20:00Z,27.1690,-82.9260,-1.0,21.11,2 
COMPS,ioos:station:USF.COMPS:C10:1,2009-04-01T22:40:00Z,27.1690,-82.9260,-1.0,21.14,2 
COMPS,ioos:station:USF.COMPS:C10:1,2009-04-01T23:00:00Z,27.1690,-82.9260,-1.0,21.1,2 
COMPS,ioos:station:USF.COMPS:C10:1,2009-04-01T23:20:00Z,27.1690,-82.9260,-1.0,21.1,2 
COMPS,ioos:station:USF.COMPS:C10:1,2009-04-01T23:40:00Z,27.1690,-82.9260,-1.0,21.15,2 
COMPS,ioos:station:USF.COMPS:C10:1,2009-04-02T00:00:00Z,27.1690,-82.9260,-1.0,21.16,2 
COMPS,ioos:station:USF.COMPS:C10:1,2009-04-02T00:20:00Z,27.1690,-82.9260,-1.0,21.06,2 
COMPS,ioos:station:USF.COMPS:C10:1,2009-04-02T00:40:00Z,27.1690,-82.9260,-1.0,21.06,2 
COMPS,ioos:station:USF.COMPS:C10:1,2009-04-02T01:00:00Z,27.1690,-82.9260,-1.0,21.09,2 
COMPS,ioos:station:USF.COMPS:C10:1,2009-04-02T01:20:00Z,27.1690,-82.9260,-1.0,21.06,2 
COMPS,ioos:station:USF.COMPS:C10:1,2009-04-02T01:40:00Z,27.1690,-82.9260,-1.0,21.06,2 
COMPS,ioos:station:USF.COMPS:C10:1,2009-04-02T02:00:00Z,27.1690,-82.9260,-1.0,21.06,2 
COMPS,ioos:station:USF.COMPS:C10:1,2009-04-02T02:20:00Z,27.1690,-82.9260,-1.0,21.06,2 
COMPS,ioos:station:USF.COMPS:C10:1,2009-04-02T02:40:00Z,27.1690,-82.9260,-1.0,21.06,2 
COMPS,ioos:station:USF.COMPS:C10:1,2009-04-02T03:00:00Z,27.1690,-82.9260,-1.0,21.08,2 
COMPS,ioos:station:USF.COMPS:C10:1,2009-04-02T03:20:00Z,27.1690,-82.9260,-1.0,21.08,2 
COMPS,ioos:station:USF.COMPS:C10:1,2009-04-02T03:40:00Z,27.1690,-82.9260,-1.0,21.08,2 
COMPS,ioos:station:USF.COMPS:C10:1,2009-04-02T04:00:00Z,27.1690,-82.9260,-1.0,21.1,2 
COMPS,ioos:station:USF.COMPS:C10:1,2009-04-02T04:20:00Z,27.1690,-82.9260,-1.0,21.11,2 
COMPS,ioos:station:USF.COMPS:C10:1,2009-04-02T04:40:00Z,27.1690,-82.9260,-1.0,21.1,2 
COMPS,ioos:station:USF.COMPS:C10:1,2009-04-02T05:00:00Z,27.1690,-82.9260,-1.0,21.12,2 
COMPS,ioos:station:USF.COMPS:C10:1,2009-04-02T05:20:00Z,27.1690,-82.9260,-1.0,21.12,2 
COMPS,ioos:station:USF.COMPS:C10:1,2009-04-02T05:40:00Z,27.1690,-82.9260,-1.0,21.12,2 
COMPS,ioos:station:USF.COMPS:C10:1,2009-04-02T06:00:00Z,27.1690,-82.9260,-1.0,21.13,2 
COMPS,ioos:station:USF.COMPS:C10:1,2009-04-02T06:20:00Z,27.1690,-82.9260,-1.0,21.11,2 
COMPS,ioos:station:USF.COMPS:C10:1,2009-04-02T06:40:00Z,27.1690,-82.9260,-1.0,21.12,2 
COMPS,ioos:station:USF.COMPS:C10:1,2009-04-02T07:00:00Z,27.1690,-82.9260,-1.0,21.12,2 
COMPS,ioos:station:USF.COMPS:C10:1,2009-04-02T07:20:00Z,27.1690,-82.9260,-1.0,21.11,2 
COMPS,ioos:station:USF.COMPS:C10:1,2009-04-02T07:40:00Z,27.1690,-82.9260,-1.0,21.12,2 
COMPS,ioos:station:USF.COMPS:C10:1,2009-04-02T08:00:00Z,27.1690,-82.9260,-1.0,21.13,2 
COMPS,ioos:station:USF.COMPS:C10:1,2009-04-02T08:20:00Z,27.1690,-82.9260,-1.0,21.12,2 
COMPS,ioos:station:USF.COMPS:C10:1,2009-04-02T08:40:00Z,27.1690,-82.9260,-1.0,21.14,2 
COMPS,ioos:station:USF.COMPS:C10:1,2009-04-02T09:00:00Z,27.1690,-82.9260,-1.0,21.15,2 
COMPS,ioos:station:USF.COMPS:C10:1,2009-04-02T09:20:00Z,27.1690,-82.9260,-1.0,21.15,2 
COMPS,ioos:station:USF.COMPS:C10:1,2009-04-02T09:40:00Z,27.1690,-82.9260,-1.0,21.15,2 
COMPS,ioos:station:USF.COMPS:C10:1,2009-04-02T10:00:00Z,27.1690,-82.9260,-1.0,21.15,2 
COMPS,ioos:station:USF.COMPS:C10:1,2009-04-02T10:20:00Z,27.1690,-82.9260,-1.0,21.15,2 
COMPS,ioos:station:USF.COMPS:C10:1,2009-04-02T10:40:00Z,27.1690,-82.9260,-1.0,21.15,2 
COMPS,ioos:station:USF.COMPS:C10:1,2009-04-02T11:00:00Z,27.1690,-82.9260,-1.0,21.16,2 
COMPS,ioos:station:USF.COMPS:C10:1,2009-04-02T11:20:00Z,27.1690,-82.9260,-1.0,21.18,2 
COMPS,ioos:station:USF.COMPS:C10:1,2009-04-02T11:40:00Z,27.1690,-82.9260,-1.0,21.19,2 
COMPS,ioos:station:USF.COMPS:C10:1,2009-04-02T12:00:00Z,27.1690,-82.9260,-1.0,21.19,2 
COMPS,ioos:station:USF.COMPS:C10:1,2009-04-02T12:20:00Z,27.1690,-82.9260,-1.0,21.19,2 
COMPS,ioos:station:USF.COMPS:C10:1,2009-04-02T12:40:00Z,27.1690,-82.9260,-1.0,21.2,2 
COMPS,ioos:station:USF.COMPS:C10:1,2009-04-02T13:00:00Z,27.1690,-82.9260,-1.0,21.22,2 
COMPS,ioos:station:USF.COMPS:C10:1,2009-04-02T13:20:00Z,27.1690,-82.9260,-1.0,21.23,2 
COMPS,ioos:station:USF.COMPS:C10:1,2009-04-02T13:40:00Z,27.1690,-82.9260,-1.0,21.24,2 
COMPS,ioos:station:USF.COMPS:C10:1,2009-04-02T14:00:00Z,27.1690,-82.9260,-1.0,21.27,2 
COMPS,ioos:station:USF.COMPS:C10:1,2009-04-02T14:20:00Z,27.1690,-82.9260,-1.0,21.27,2 
COMPS,ioos:station:USF.COMPS:C10:1,2009-04-02T14:40:00Z,27.1690,-82.9260,-1.0,21.28,2 
COMPS,ioos:station:USF.COMPS:C10:1,2009-04-02T15:00:00Z,27.1690,-82.9260,-1.0,21.29,2 
COMPS,ioos:station:USF.COMPS:C10:1,2009-04-02T15:20:00Z,27.1690,-82.9260,-1.0,21.3,2 
COMPS,ioos:station:USF.COMPS:C10:1,2009-04-02T15:40:00Z,27.1690,-82.9260,-1.0,21.33,2 
COMPS,ioos:station:USF.COMPS:C10:1,2009-04-02T16:00:00Z,27.1690,-82.9260,-1.0,21.34,2 
COMPS,ioos:station:USF.COMPS:C10:1,2009-04-02T16:20:00Z,27.1690,-82.9260,-1.0,21.37,2 
COMPS,ioos:station:USF.COMPS:C10:1,2009-04-02T16:40:00Z,27.1690,-82.9260,-1.0,21.39,2 
COMPS,ioos:station:USF.COMPS:C10:1,2009-04-02T17:00:00Z,27.1690,-82.9260,-1.0,21.39,2 
COMPS,ioos:station:USF.COMPS:C10:1,2009-04-02T17:20:00Z,27.1690,-82.9260,-1.0,21.42,2 
COMPS,ioos:station:USF.COMPS:C10:1,2009-04-02T17:40:00Z,27.1690,-82.9260,-1.0,21.42,2 
COMPS,ioos:station:USF.COMPS:C10:1,2009-04-02T18:00:00Z,27.1690,-82.9260,-1.0,21.44,2 
COMPS,ioos:station:USF.COMPS:C10:1,2009-04-02T18:20:00Z,27.1690,-82.9260,-1.0,21.45,2 
COMPS,ioos:station:USF.COMPS:C10:1,2009-04-02T18:40:00Z,27.1690,-82.9260,-1.0,21.5,2 
COMPS,ioos:station:USF.COMPS:C10:1,2009-04-02T19:00:00Z,27.1690,-82.9260,-1.0,21.54,2 
COMPS,ioos:station:USF.COMPS:C10:1,2009-04-02T19:20:00Z,27.1690,-82.9260,-1.0,21.52,2 
COMPS,ioos:station:USF.COMPS:C10:1,2009-04-02T19:40:00Z,27.1690,-82.9260,-1.0,21.51,2 
COMPS,ioos:station:USF.COMPS:C10:1,2009-04-02T20:00:00Z,27.1690,-82.9260,-1.0,21.53,2 
COMPS,ioos:station:USF.COMPS:C10:1,2009-04-02T20:20:00Z,27.1690,-82.9260,-1.0,21.51,2 
COMPS,ioos:station:USF.COMPS:C10:1,2009-04-02T20:40:00Z,27.1690,-82.9260,-1.0,21.61,2 
COMPS,ioos:station:USF.COMPS:C10:1,2009-04-02T21:00:00Z,27.1690,-82.9260,-1.0,21.57,2 
COMPS,ioos:station:USF.COMPS:C10:1,2009-04-02T21:20:00Z,27.1690,-82.9260,-1.0,21.6,2 
COMPS,ioos:station:USF.COMPS:C10:1,2009-04-02T21:40:00Z,27.1690,-82.9260,-1.0,21.55,2 
COMPS,ioos:station:USF.COMPS:C10:1,2009-04-02T22:00:00Z,27.1690,-82.9260,-1.0,21.57,2 
COMPS,ioos:station:USF.COMPS:C10:1,2009-04-02T22:20:00Z,27.1690,-82.9260,-1.0,21.55,2 
COMPS,ioos:station:USF.COMPS:C10:1,2009-04-02T22:40:00Z,27.1690,-82.9260,-1.0,21.65,2 
COMPS,ioos:station:USF.COMPS:C10:1,2009-04-02T23:00:00Z,27.1690,-82.9260,-1.0,21.59,2 
COMPS,ioos:station:USF.COMPS:C10:1,2009-04-02T23:20:00Z,27.1690,-82.9260,-1.0,21.62,2 
COMPS,ioos:station:USF.COMPS:C10:1,2009-04-02T23:40:00Z,27.1690,-82.9260,-1.0,21.58,2 
COMPS,ioos:station:USF.COMPS:C10:1,2009-04-03T00:00:00Z,27.1690,-82.9260,-1.0,21.5,2 
COMPS,ioos:station:USF.COMPS:C10:1,2009-04-03T00:20:00Z,27.1690,-82.9260,-1.0,21.51,2 
COMPS,ioos:station:USF.COMPS:C10:1,2009-04-03T00:40:00Z,27.1690,-82.9260,-1.0,21.46,2 
COMPS,ioos:station:USF.COMPS:C10:1,2009-04-03T01:00:00Z,27.1690,-82.9260,-1.0,21.48,2 
COMPS,ioos:station:USF.COMPS:C10:1,2009-04-03T01:20:00Z,27.1690,-82.9260,-1.0,21.45,2 
COMPS,ioos:station:USF.COMPS:C10:1,2009-04-03T01:40:00Z,27.1690,-82.9260,-1.0,21.47,2 
COMPS,ioos:station:USF.COMPS:C10:1,2009-04-03T02:00:00Z,27.1690,-82.9260,-1.0,21.47,2 
COMPS,ioos:station:USF.COMPS:C10:1,2009-04-03T02:20:00Z,27.1690,-82.9260,-1.0,21.45,2 
COMPS,ioos:station:USF.COMPS:C10:1,2009-04-03T02:40:00Z,27.1690,-82.9260,-1.0,21.46,2 
COMPS,ioos:station:USF.COMPS:C10:1,2009-04-03T03:00:00Z,27.1690,-82.9260,-1.0,21.48,2 
COMPS,ioos:station:USF.COMPS:C10:1,2009-04-03T03:20:00Z,27.1690,-82.9260,-1.0,21.47,2 
COMPS,ioos:station:USF.COMPS:C10:1,2009-04-03T03:40:00Z,27.1690,-82.9260,-1.0,21.48,2 
COMPS,ioos:station:USF.COMPS:C10:1,2009-04-03T04:00:00Z,27.1690,-82.9260,-1.0,21.48,2 
COMPS,ioos:station:USF.COMPS:C10:1,2009-04-03T04:20:00Z,27.1690,-82.9260,-1.0,21.48,2 
COMPS,ioos:station:USF.COMPS:C10:1,2009-04-03T04:40:00Z,27.1690,-82.9260,-1.0,21.48,2 
COMPS,ioos:station:USF.COMPS:C10:1,2009-04-03T05:00:00Z,27.1690,-82.9260,-1.0,21.45,2 
COMPS,ioos:station:USF.COMPS:C10:1,2009-04-03T05:20:00Z,27.1690,-82.9260,-1.0,21.44,2 
COMPS,ioos:station:USF.COMPS:C10:1,2009-04-03T05:40:00Z,27.1690,-82.9260,-1.0,21.44,2 
COMPS,ioos:station:USF.COMPS:C10:1,2009-04-03T06:00:00Z,27.1690,-82.9260,-1.0,21.43,2 
COMPS,ioos:station:USF.COMPS:C10:1,2009-04-03T06:20:00Z,27.1690,-82.9260,-1.0,21.41,2 
COMPS,ioos:station:USF.COMPS:C10:1,2009-04-03T06:40:00Z,27.1690,-82.9260,-1.0,21.4,2 
COMPS,ioos:station:USF.COMPS:C10:1,2009-04-03T07:00:00Z,27.1690,-82.9260,-1.0,21.41,2 
COMPS,ioos:station:USF.COMPS:C10:1,2009-04-03T07:20:00Z,27.1690,-82.9260,-1.0,21.41,2 
COMPS,ioos:station:USF.COMPS:C10:1,2009-04-03T07:40:00Z,27.1690,-82.9260,-1.0,21.37,2 
COMPS,ioos:station:USF.COMPS:C10:1,2009-04-03T08:00:00Z,27.1690,-82.9260,-1.0,21.39,2 
COMPS,ioos:station:USF.COMPS:C10:1,2009-04-03T08:20:00Z,27.1690,-82.9260,-1.0,21.49,2 
COMPS,ioos:station:USF.COMPS:C10:1,2009-04-03T08:40:00Z,27.1690,-82.9260,-1.0,21.5,2 
COMPS,ioos:station:USF.COMPS:C10:1,2009-04-03T09:00:00Z,27.1690,-82.9260,-1.0,21.5,2 
COMPS,ioos:station:USF.COMPS:C10:1,2009-04-03T09:20:00Z,27.1690,-82.9260,-1.0,21.48,2 
COMPS,ioos:station:USF.COMPS:C10:1,2009-04-03T09:40:00Z,27.1690,-82.9260,-1.0,21.48,2 
COMPS,ioos:station:USF.COMPS:C10:1,2009-04-03T10:00:00Z,27.1690,-82.9260,-1.0,21.44,2 
COMPS,ioos:station:USF.COMPS:C10:1,2009-04-03T10:20:00Z,27.1690,-82.9260,-1.0,21.44,2 
COMPS,ioos:station:USF.COMPS:C10:1,2009-04-03T10:40:00Z,27.1690,-82.9260,-1.0,21.43,2 
COMPS,ioos:station:USF.COMPS:C10:1,2009-04-03T11:00:00Z,27.1690,-82.9260,-1.0,21.43,2 
COMPS,ioos:station:USF.COMPS:C10:1,2009-04-03T11:20:00Z,27.1690,-82.9260,-1.0,21.43,2 
COMPS,ioos:station:USF.COMPS:C10:1,2009-04-03T11:40:00Z,27.1690,-82.9260,-1.0,21.41,2 
COMPS,ioos:station:USF.COMPS:C10:1,2009-04-03T12:00:00Z,27.1690,-82.9260,-1.0,21.42,2 
COMPS,ioos:station:USF.COMPS:C10:1,2009-04-03T12:20:00Z,27.1690,-82.9260,-1.0,21.41,2 
COMPS,ioos:station:USF.COMPS:C10:1,2009-04-03T12:40:00Z,27.1690,-82.9260,-1.0,21.43,2 
COMPS,ioos:station:USF.COMPS:C10:1,2009-04-03T13:00:00Z,27.1690,-82.9260,-1.0,21.44,2 
COMPS,ioos:station:USF.COMPS:C10:1,2009-04-03T13:20:00Z,27.1690,-82.9260,-1.0,21.44,2 
COMPS,ioos:station:USF.COMPS:C10:1,2009-04-03T13:40:00Z,27.1690,-82.9260,-1.0,21.44,2 
COMPS,ioos:station:USF.COMPS:C10:1,2009-04-03T14:00:00Z,27.1690,-82.9260,-1.0,21.44,2 
COMPS,ioos:station:USF.COMPS:C10:1,2009-04-03T14:20:00Z,27.1690,-82.9260,-1.0,21.44,2 
COMPS,ioos:station:USF.COMPS:C10:1,2009-04-03T14:40:00Z,27.1690,-82.9260,-1.0,21.44,2 
COMPS,ioos:station:USF.COMPS:C10:1,2009-04-03T15:00:00Z,27.1690,-82.9260,-1.0,21.44,2 
COMPS,ioos:station:USF.COMPS:C10:1,2009-04-03T15:20:00Z,27.1690,-82.9260,-1.0,21.44,2 
COMPS,ioos:station:USF.COMPS:C10:1,2009-04-03T15:40:00Z,27.1690,-82.9260,-1.0,21.44,2 
COMPS,ioos:station:USF.COMPS:C10:1,2009-04-03T16:00:00Z,27.1690,-82.9260,-1.0,21.44,2 
COMPS,ioos:station:USF.COMPS:C10:1,2009-04-03T16:20:00Z,27.1690,-82.9260,-1.0,21.45,2 
COMPS,ioos:station:USF.COMPS:C10:1,2009-04-03T16:40:00Z,27.1690,-82.9260,-1.0,21.45,2 
COMPS,ioos:station:USF.COMPS:C10:1,2009-04-03T17:00:00Z,27.1690,-82.9260,-1.0,21.46,2 
COMPS,ioos:station:USF.COMPS:C10:1,2009-04-03T17:20:00Z,27.1690,-82.9260,-1.0,21.46,2 
COMPS,ioos:station:USF.COMPS:C10:1,2009-04-03T17:40:00Z,27.1690,-82.9260,-1.0,21.47,2 
COMPS,ioos:station:USF.COMPS:C10:1,2009-04-03T18:00:00Z,27.1690,-82.9260,-1.0,21.47,2 
COMPS,ioos:station:USF.COMPS:C10:1,2009-04-03T18:20:00Z,27.1690,-82.9260,-1.0,21.48,2 
COMPS,ioos:station:USF.COMPS:C10:1,2009-04-03T18:40:00Z,27.1690,-82.9260,-1.0,21.49,2 
COMPS,ioos:station:USF.COMPS:C10:1,2009-04-03T19:00:00Z,27.1690,-82.9260,-1.0,21.5,2 
COMPS,ioos:station:USF.COMPS:C10:1,2009-04-03T19:20:00Z,27.1690,-82.9260,-1.0,21.51,2 
COMPS,ioos:station:USF.COMPS:C10:1,2009-04-03T19:40:00Z,27.1690,-82.9260,-1.0,21.51,2 
COMPS,ioos:station:USF.COMPS:C10:1,2009-04-03T20:00:00Z,27.1690,-82.9260,-1.0,21.52,2 
COMPS,ioos:station:USF.COMPS:C10:1,2009-04-03T20:20:00Z,27.1690,-82.9260,-1.0,21.52,2 
COMPS,ioos:station:USF.COMPS:C10:1,2009-04-03T20:40:00Z,27.1690,-82.9260,-1.0,21.53,2 
COMPS,ioos:station:USF.COMPS:C10:1,2009-04-03T21:00:00Z,27.1690,-82.9260,-1.0,21.53,2 
COMPS,ioos:station:USF.COMPS:C10:1,2009-04-03T21:20:00Z,27.1690,-82.9260,-1.0,21.54,2 
COMPS,ioos:station:USF.COMPS:C10:1,2009-04-03T21:40:00Z,27.1690,-82.9260,-1.0,21.55,2 
COMPS,ioos:station:USF.COMPS:C10:1,2009-04-03T22:00:00Z,27.1690,-82.9260,-1.0,21.55,2 
COMPS,ioos:station:USF.COMPS:C10:1,2009-04-03T22:20:00Z,27.1690,-82.9260,-1.0,21.55,2 
COMPS,ioos:station:USF.COMPS:C10:1,2009-04-03T22:40:00Z,27.1690,-82.9260,-1.0,21.52,2 
COMPS,ioos:station:USF.COMPS:C10:1,2009-04-03T23:00:00Z,27.1690,-82.9260,-1.0,21.52,2 
COMPS,ioos:station:USF.COMPS:C10:1,2009-04-03T23:20:00Z,27.1690,-82.9260,-1.0,21.51,2 
COMPS,ioos:station:USF.COMPS:C10:1,2009-04-03T23:40:00Z,27.1690,-82.9260,-1.0,21.51,2 
COMPS,ioos:station:USF.COMPS:C10:1,2009-04-04T00:00:00Z,27.1690,-82.9260,-1.0,21.51,2 
COMPS,ioos:station:USF.COMPS:C10:1,2009-04-04T00:20:00Z,27.1690,-82.9260,-1.0,21.5,2 
COMPS,ioos:station:USF.COMPS:C10:1,2009-04-04T00:40:00Z,27.1690,-82.9260,-1.0,21.51,2 
COMPS,ioos:station:USF.COMPS:C10:1,2009-04-04T01:00:00Z,27.1690,-82.9260,-1.0,21.51,2 
COMPS,ioos:station:USF.COMPS:C10:1,2009-04-04T01:20:00Z,27.1690,-82.9260,-1.0,21.5,2 
COMPS,ioos:station:USF.COMPS:C10:1,2009-04-04T01:40:00Z,27.1690,-82.9260,-1.0,21.52,2 
COMPS,ioos:station:USF.COMPS:C10:1,2009-04-04T02:00:00Z,27.1690,-82.9260,-1.0,21.52,2 
COMPS,ioos:station:USF.COMPS:C10:1,2009-04-04T02:20:00Z,27.1690,-82.9260,-1.0,21.52,2 
COMPS,ioos:station:USF.COMPS:C10:1,2009-04-04T02:40:00Z,27.1690,-82.9260,-1.0,21.53,2 
COMPS,ioos:station:USF.COMPS:C10:1,2009-04-04T03:00:00Z,27.1690,-82.9260,-1.0,21.54,2 
COMPS,ioos:station:USF.COMPS:C10:1,2009-04-04T03:20:00Z,27.1690,-82.9260,-1.0,21.54,2 
COMPS,ioos:station:USF.COMPS:C10:1,2009-04-04T03:40:00Z,27.1690,-82.9260,-1.0,21.53,2 
COMPS,ioos:station:USF.COMPS:C10:1,2009-04-04T04:00:00Z,27.1690,-82.9260,-1.0,21.52,2 
COMPS,ioos:station:USF.COMPS:C10:1,2009-04-04T04:20:00Z,27.1690,-82.9260,-1.0,21.53,2 
COMPS,ioos:station:USF.COMPS:C10:1,2009-04-04T04:40:00Z,27.1690,-82.9260,-1.0,21.53,2 
COMPS,ioos:station:USF.COMPS:C10:1,2009-04-04T05:00:00Z,27.1690,-82.9260,-1.0,21.52,2 
COMPS,ioos:station:USF.COMPS:C10:1,2009-04-04T05:20:00Z,27.1690,-82.9260,-1.0,21.5,2 
COMPS,ioos:station:USF.COMPS:C10:1,2009-04-04T05:40:00Z,27.1690,-82.9260,-1.0,21.51,2 
COMPS,ioos:station:USF.COMPS:C10:1,2009-04-04T06:00:00Z,27.1690,-82.9260,-1.0,21.49,2 
COMPS,ioos:station:USF.COMPS:C10:1,2009-04-04T06:20:00Z,27.1690,-82.9260,-1.0,21.47,2 
COMPS,ioos:station:USF.COMPS:C10:1,2009-04-04T06:40:00Z,27.1690,-82.9260,-1.0,21.46,2 
COMPS,ioos:station:USF.COMPS:C10:1,2009-04-04T07:00:00Z,27.1690,-82.9260,-1.0,21.47,2 
COMPS,ioos:station:USF.COMPS:C10:1,2009-04-04T07:20:00Z,27.1690,-82.9260,-1.0,21.47,2 
COMPS,ioos:station:USF.COMPS:C10:1,2009-04-04T07:40:00Z,27.1690,-82.9260,-1.0,21.47,2 
COMPS,ioos:station:USF.COMPS:C10:1,2009-04-04T08:00:00Z,27.1690,-82.9260,-1.0,21.46,2 
COMPS,ioos:station:USF.COMPS:C10:1,2009-04-04T08:20:00Z,27.1690,-82.9260,-1.0,21.44,2 
COMPS,ioos:station:USF.COMPS:C10:1,2009-04-04T08:40:00Z,27.1690,-82.9260,-1.0,21.45,2 
COMPS,ioos:station:USF.COMPS:C10:1,2009-04-04T09:00:00Z,27.1690,-82.9260,-1.0,21.44,2 
COMPS,ioos:station:USF.COMPS:C10:1,2009-04-04T09:20:00Z,27.1690,-82.9260,-1.0,21.43,2 
COMPS,ioos:station:USF.COMPS:C10:1,2009-04-04T09:40:00Z,27.1690,-82.9260,-1.0,21.44,2 
COMPS,ioos:station:USF.COMPS:C10:1,2009-04-04T10:00:00Z,27.1690,-82.9260,-1.0,21.43,2 
COMPS,ioos:station:USF.COMPS:C10:1,2009-04-04T10:20:00Z,27.1690,-82.9260,-1.0,21.43,2 
COMPS,ioos:station:USF.COMPS:C10:1,2009-04-04T10:40:00Z,27.1690,-82.9260,-1.0,21.42,2 
COMPS,ioos:station:USF.COMPS:C10:1,2009-04-04T11:00:00Z,27.1690,-82.9260,-1.0,21.43,2 
COMPS,ioos:station:USF.COMPS:C10:1,2009-04-04T11:20:00Z,27.1690,-82.9260,-1.0,21.43,2 
COMPS,ioos:station:USF.COMPS:C10:1,2009-04-04T11:40:00Z,27.1690,-82.9260,-1.0,21.44,2 
COMPS,ioos:station:USF.COMPS:C10:1,2009-04-04T12:00:00Z,27.1690,-82.9260,-1.0,21.43,2 
COMPS,ioos:station:USF.COMPS:C10:1,2009-04-04T12:20:00Z,27.1690,-82.9260,-1.0,21.43,2 
COMPS,ioos:station:USF.COMPS:C10:1,2009-04-04T12:40:00Z,27.1690,-82.9260,-1.0,21.44,2 
COMPS,ioos:station:USF.COMPS:C10:1,2009-04-04T13:00:00Z,27.1690,-82.9260,-1.0,21.44,2 
COMPS,ioos:station:USF.COMPS:C10:1,2009-04-04T13:20:00Z,27.1690,-82.9260,-1.0,21.44,2 
COMPS,ioos:station:USF.COMPS:C10:1,2009-04-04T13:40:00Z,27.1690,-82.9260,-1.0,21.45,2 
COMPS,ioos:station:USF.COMPS:C10:1,2009-04-04T14:00:00Z,27.1690,-82.9260,-1.0,21.45,2 
COMPS,ioos:station:USF.COMPS:C10:1,2009-04-04T14:20:00Z,27.1690,-82.9260,-1.0,21.46,2 
COMPS,ioos:station:USF.COMPS:C10:1,2009-04-04T14:40:00Z,27.1690,-82.9260,-1.0,21.46,2 
COMPS,ioos:station:USF.COMPS:C10:1,2009-04-04T15:00:00Z,27.1690,-82.9260,-1.0,21.47,2 
COMPS,ioos:station:USF.COMPS:C10:1,2009-04-04T15:20:00Z,27.1690,-82.9260,-1.0,21.48,2 
COMPS,ioos:station:USF.COMPS:C10:1,2009-04-04T15:40:00Z,27.1690,-82.9260,-1.0,21.48,2 
COMPS,ioos:station:USF.COMPS:C10:1,2009-04-04T16:00:00Z,27.1690,-82.9260,-1.0,21.5,2 
COMPS,ioos:station:USF.COMPS:C10:1,2009-04-04T16:20:00Z,27.1690,-82.9260,-1.0,21.5,2 
COMPS,ioos:station:USF.COMPS:C10:1,2009-04-04T16:40:00Z,27.1690,-82.9260,-1.0,21.5,2 
COMPS,ioos:station:USF.COMPS:C10:1,2009-04-04T17:00:00Z,27.1690,-82.9260,-1.0,21.52,2 
COMPS,ioos:station:USF.COMPS:C10:1,2009-04-04T17:20:00Z,27.1690,-82.9260,-1.0,21.53,2 
COMPS,ioos:station:USF.COMPS:C10:1,2009-04-04T17:40:00Z,27.1690,-82.9260,-1.0,21.56,2 
COMPS,ioos:station:USF.COMPS:C10:1,2009-04-04T18:00:00Z,27.1690,-82.9260,-1.0,21.56,2 
COMPS,ioos:station:USF.COMPS:C10:1,2009-04-04T18:20:00Z,27.1690,-82.9260,-1.0,21.56,2 
COMPS,ioos:station:USF.COMPS:C10:1,2009-04-04T18:40:00Z,27.1690,-82.9260,-1.0,21.57,2 
COMPS,ioos:station:USF.COMPS:C10:1,2009-04-04T19:00:00Z,27.1690,-82.9260,-1.0,21.57,2 
COMPS,ioos:station:USF.COMPS:C10:1,2009-04-04T19:20:00Z,27.1690,-82.9260,-1.0,21.6,2 